Peoria, IL

8:21 PM CDT on September 28, 2016 (GMT -0500)
Greater Peoria Regional

Weather History for KPIA - May, 2015

Change the Weather History Date:

Monday, May 11, 2015

  Actual Average Record
Temperature  
Mean Temperature 63 °F 61 °F  
Max Temperature 71 °F 72 °F 91 °F (2011)
Min Temperature 55 °F 50 °F 32 °F (1907)
Degree Days  
Heating Degree Days 2 6  
Month to date heating degree days 15 75  
Since 1 July heating degree days 5738 5740  
Cooling Degree Days 0 2  
Month to date cooling degree days 52 12  
Year to date cooling degree days 63 26  
Growing Degree Days 14 (Base 50)    
Moisture  
Dew Point 56 °F    
Average Humidity 66    
Maximum Humidity 87    
Minimum Humidity 44    
Precipitation  
Precipitation 0.46 in 0.14 in 2.59 in (1923)
Month to date precipitation 2.97 1.52  
Year to date precipitation 10.72 11.52  
Snow  
Snow 0.00 in 0.00 in T in (1966)
Month to date snowfall 0.0 0.0  
Since 1 July snowfall 27.0 24.6  
Snow Depth 0.00 in    
Sea Level Pressure  
Sea Level Pressure 29.87 in    
Wind  
Wind Speed 15 mph (SW)    
Max Wind Speed 26 mph    
Max Gust Speed 37 mph    
Visibility 9 miles    
Events Rain    
T = Trace of Precipitation, MM = Missing Value Source: NWS Daily Summary

Daily Weather History Graph

Daily Weather History Graph

Search for Another Location

Airport or City:

Trip Planner

Search our weather history database for the weather conditions in past years. The results will help you decide how hot, cold, wet, or windy it might be!

Date:

Astronomy

May. 11, 2015 Rise Set
Actual Time 5:46 AM CDT 8:04 PM CDT
Civil Twilight 5:15 AM CDT 8:35 PM CDT
Nautical Twilight 4:37 AM CDT 9:13 PM CDT
Astronomical Twilight 3:55 AM CDT 9:55 PM CDT
Moon 1:42 AM CDT (5/11) 12:50 PM CDT (5/11)
Length of Visible Light 15h 20m
Length of Day
14h 18m
Waning Gibbous, 47% of the Moon is Illuminated
May 11
Waning Gibbous
May 17
New
May 25
First Quarter
Jun 2
Full
Jun 9
Last Quarter

Hourly Weather History & Observations

Time (CDT) Temp. Dew Point Humidity Pressure Visibility Wind Dir Wind Speed Gust Speed Precip Events Conditions
12:54 AM 66.9 °F 62.1 °F 84% 29.90 in 10.0 mi South 9.2 mph - N/A   Mostly Cloudy
1:54 AM 66.9 °F 62.1 °F 84% 29.88 in 10.0 mi South 12.7 mph - N/A   Clear
2:54 AM 66.9 °F 62.1 °F 84% 29.84 in 10.0 mi South 12.7 mph - N/A   Mostly Cloudy
3:54 AM 66.2 °F 62.6 °F 88% 29.85 in 8.0 mi South 11.5 mph - N/A   Overcast
4:35 AM 66.9 °F 62.1 °F 84% 29.86 in 5.0 mi SSW 12.7 mph - 0.12 in Rain Rain
4:54 AM 66.9 °F 63.0 °F 87% 29.85 in 10.0 mi SSW 10.4 mph - 0.15 in   Overcast
5:54 AM 66.9 °F 62.1 °F 84% 29.87 in 6.0 mi SSW 17.3 mph 27.6 mph 0.04 in Rain Light Rain
6:54 AM 66.0 °F 62.1 °F 87% 29.88 in 2.5 mi SSW 12.7 mph - 0.14 in Rain Rain
7:06 AM 66.0 °F 62.1 °F 87% 29.89 in 1.8 mi SSW 11.5 mph - 0.06 in Rain Rain
7:08 AM 66.0 °F 62.1 °F 87% 29.89 in 2.0 mi South 12.7 mph - 0.06 in Rain Rain
7:21 AM 66.2 °F 62.6 °F 88% 29.88 in 4.0 mi South 11.5 mph - N/A Rain Light Rain
7:54 AM 64.9 °F 61.0 °F 87% 29.85 in 10.0 mi South 10.4 mph 25.3 mph 0.11 in Rain Light Rain
8:02 AM 64.9 °F 61.0 °F 87% 29.86 in 10.0 mi South 10.4 mph - 0.00 in Rain Light Rain
8:45 AM 64.9 °F 61.0 °F 87% 29.86 in 10.0 mi South 15.0 mph - 0.01 in Rain Light Rain
8:52 AM 64.4 °F 60.8 °F 88% 29.85 in 10.0 mi South 11.5 mph - 0.01 in Rain Light Rain
8:54 AM 64.9 °F 61.0 °F 87% 29.85 in 10.0 mi South 11.5 mph - 0.01 in Rain Light Rain
9:01 AM 64.9 °F 61.0 °F 87% 29.86 in 10.0 mi SSW 11.5 mph - 0.00 in Rain Light Rain
9:52 AM 66.2 °F 60.8 °F 83% 29.84 in 10.0 mi SSW 13.8 mph - 0.00 in   Overcast
9:54 AM 66.2 °F 60.8 °F 83% 29.84 in 10.0 mi SSW 15.0 mph - N/A   Overcast
10:44 AM 68.0 °F 62.1 °F 81% 29.84 in 10.0 mi SSW 15.0 mph 23.0 mph N/A   Overcast
10:54 AM 68.0 °F 61.0 °F 78% 29.83 in 10.0 mi SSW 15.0 mph - N/A   Overcast
11:54 AM 69.1 °F 61.0 °F 75% 29.83 in 10.0 mi WSW 17.3 mph 24.2 mph N/A   Overcast
12:05 PM 64.9 °F 60.1 °F 84% 29.84 in 5.0 mi West 11.5 mph - 0.01 in Rain Light Rain
12:14 PM 66.0 °F 61.0 °F 84% 29.84 in 10.0 mi WSW 12.7 mph - 0.01 in   Overcast
12:17 PM 64.9 °F 60.1 °F 84% 29.84 in 10.0 mi West 15.0 mph - 0.01 in   Overcast
12:54 PM 64.0 °F 59.0 °F 84% 29.84 in 10.0 mi WSW 13.8 mph - 0.01 in   Overcast
1:04 PM 63.0 °F 57.0 °F 81% 29.86 in 10.0 mi WSW 15.0 mph 23.0 mph N/A   Overcast
1:13 PM 64.0 °F 57.0 °F 78% 29.85 in 10.0 mi WSW 10.4 mph 18.4 mph N/A   Overcast
1:54 PM 69.1 °F 57.9 °F 68% 29.83 in 10.0 mi SW 13.8 mph 20.7 mph N/A   Scattered Clouds
2:54 PM 71.1 °F 50.0 °F 47% 29.84 in 10.0 mi WSW 24.2 mph 34.5 mph N/A   Scattered Clouds
3:54 PM 69.8 °F 46.4 °F 43% 29.85 in 10.0 mi WSW 21.9 mph 27.6 mph N/A   Clear
4:54 PM 68.0 °F 46.0 °F 45% 29.86 in 10.0 mi WSW 16.1 mph 29.9 mph N/A   Clear
5:54 PM 66.9 °F 46.9 °F 49% 29.88 in 10.0 mi West 17.3 mph 26.5 mph N/A   Mostly Cloudy
6:54 PM 63.0 °F 45.0 °F 52% 29.92 in 10.0 mi West 19.6 mph 29.9 mph N/A   Mostly Cloudy
7:54 PM 60.1 °F 43.0 °F 53% 29.95 in 10.0 mi West 13.8 mph 23.0 mph N/A   Scattered Clouds
8:54 PM 59.0 °F 42.1 °F 53% 29.97 in 10.0 mi West 10.4 mph - N/A   Mostly Cloudy
9:54 PM 57.9 °F 42.1 °F 56% 29.99 in 10.0 mi West 13.8 mph - N/A   Overcast
10:54 PM 57.0 °F 41.0 °F 55% 29.99 in 10.0 mi West 12.7 mph 19.6 mph N/A   Overcast
11:54 PM 55.9 °F 37.9 °F 51% 29.99 in 10.0 mi West 17.3 mph 23.0 mph N/A   Overcast